Overview Statistics Trail Chart Weather Telemetry Raw packets
 

This is the latest recevied weather packets stored in our database for station/object K0QED. If no packets are shown the sender has not sent any weather packets the latest 10 day(s).

<< 88 89 90 91 92 93 94 >>
Time Temp. Humidity Pressure Rain* Wind** Luminosity Snow
1787972979 17.22° C 55% 1028.4 hPa 0 mm - 0 W/m² -
1787972675 17.22° C 55% 1028.4 hPa 0 mm - 0 W/m² -
1787972373 17.78° C 58% 1028.4 hPa 0 mm - 0 W/m² -
1787972069 17.78° C 59% 1028.2 hPa 0 mm - 0 W/m² -
1787971769 18.33° C 63% 1028.4 hPa 0 mm - 0 W/m² -
1787971465 18.89° C 61% 1027.9 hPa 0 mm - 0 W/m² -
1787971161 18.89° C 54% 1028.4 hPa 0 mm - 0 W/m² -
1787970862 18.33° C 57% 1028.1 hPa 0 mm - 0 W/m² -
1787970559 18.33° C 61% 1027.9 hPa 0 mm - 0 W/m² -
1787970254 18.33° C 62% 1027.9 hPa 0 mm - 0 W/m² -
1787969947 18.33° C 61% 1028 hPa 0 mm - 0 W/m² -
1787969646 18.89° C 62% 1027.9 hPa 0 mm - 0 W/m² -
1787969341 18.89° C 60% 1028 hPa 0 mm - 0 W/m² -
1787969042 18.89° C 60% 1027.7 hPa 0 mm - 0 W/m² -
1787968735 18.89° C 59% 1027.7 hPa 0 mm - 0 W/m² -
1787968434 19.44° C 59% 1027.6 hPa 0 mm - 0 W/m² -
1787968130 20° C 58% 1027.7 hPa 0 mm - 0 W/m² -
1787967829 20° C 56% 1027.7 hPa 0 mm - 0 W/m² -
1787967527 19.44° C 56% 1027.7 hPa 0 mm - 0 W/m² -
1787967222 18.89° C 60% 1027.7 hPa 0 mm - 0 W/m² -
1787966918 19.44° C 63% 1027.9 hPa 0 mm - 1 W/m² -
1787966614 19.44° C 58% 1028.1 hPa 0 mm - 2 W/m² -
1787966313 19.44° C 60% 1028.2 hPa 0 mm - 4 W/m² -
1787966008 19.44° C 61% 1028.1 hPa 0 mm - 5 W/m² -
1787965703 18.89° C 63% 1028.6 hPa 0 mm - 6 W/m² -

* Rain latest hour (hover to see other rain measurements)
** Current wind speed in m/s (hover to see current wind gust speed)